Location: Hilton Head Island
(32.2163°N, 80.7526°W)
Time: 19:28:53
(UTC-05:00)

Transit 2A - Pass Details

Date: 22 February 2026
Orbit: 590 x 954 km, 66.7° (Epoch: 7 March)

Event Time Altitude Azimuth Distance (km) Brightness Sun altitude
Rises 21:15:52 0° 332° (NNW) 3,480 9.9 -38.7°
Reaches altitude 10° 21:18:29 10° 331° (NNW) 2,488 9.0 -39.3°
Enters shadow 21:19:42 17° 330° (NNW) 2,029 8.5 -39.5°
